Time,TemperatureF,DewpointF,PressureIn,WindDirection,WindDirectionDegrees,WindSpeedMPH,WindSpeedGustMPH,Humidity,HourlyPrecipIn,Conditions,Clouds,dailyrainin,SoftwareType,DateUTC
2013-10-28 00:01:00,55.8,51.7,30.12,North,349,0.0,0.0,86,0.00,,,0.00,Wunderground v.1.15,2013-10-28 04:01:00,
2013-10-28 00:02:00,55.8,51.7,30.12,North,349,0.0,0.0,86,0.00,,,0.00,Wunderground v.1.15,2013-10-28 04:02:00,
2013-10-28 00:03:00,55.7,51.6,30.12,North,349,0.0,0.0,86,0.00,,,0.00,Wunderground v.1.15,2013-10-28 04:03:00,
2013-10-28 00:04:00,55.7,51.6,30.12,North,349,1.0,1.0,86,0.00,,,0.00,Wunderground v.1.15,2013-10-28 04:04:00,
2013-10-28 00:06:00,55.7,51.6,30.12,North,349,0.0,1.0,86,0.00,,,0.00,Wunderground v.1.15,2013-10-28 04:06:00,
2013-10-28 00:08:00,55.7,51.9,30.12,NNW,348,0.0,1.0,87,0.00,,,0.00,Wunderground v.1.15,2013-10-28 04:08:00,
2013-10-28 00:13:00,55.6,51.8,30.12,North,349,0.0,0.0,87,0.00,,,0.00,Wunderground v.1.15,2013-10-28 04:13:00,
2013-10-28 00:18:00,55.6,52.1,30.12,North,349,0.0,0.0,88,0.00,,,0.00,Wunderground v.1.15,2013-10-28 04:18:00,
2013-10-28 00:24:00,55.5,52.0,30.12,North,349,0.0,0.0,88,0.00,,,0.00,Wunderground v.1.15,2013-10-28 04:24:00,
2013-10-28 00:29:00,55.4,51.9,30.12,North,349,0.0,0.0,88,0.00,,,0.00,Wunderground v.1.15,2013-10-28 04:29:00,
2013-10-28 00:35:00,55.3,51.8,30.12,North,349,0.0,0.0,88,0.00,,,0.00,Wunderground v.1.15,2013-10-28 04:35:00,
2013-10-28 00:40:00,55.3,52.1,30.12,North,349,0.0,0.0,89,0.00,,,0.00,Wunderground v.1.15,2013-10-28 04:40:00,
2013-10-28 00:46:00,55.4,52.2,30.12,North,349,0.0,0.0,89,0.00,,,0.00,Wunderground v.1.15,2013-10-28 04:46:00,
2013-10-28 00:51:00,55.4,52.2,30.12,North,349,0.0,0.0,89,0.00,,,0.00,Wunderground v.1.15,2013-10-28 04:51:00,
2013-10-28 00:57:00,55.4,52.2,30.11,North,349,0.0,0.0,89,0.00,,,0.00,Wunderground v.1.15,2013-10-28 04:57:00,
2013-10-28 01:02:00,55.4,52.2,30.11,North,349,0.0,0.0,89,0.00,,,0.00,Wunderground v.1.15,2013-10-28 05:02:00,
2013-10-28 01:08:00,55.2,52.0,30.11,North,349,0.0,0.0,89,0.00,,,0.00,Wunderground v.1.15,2013-10-28 05:08:00,
2013-10-28 01:14:00,55.1,51.9,30.11,West,270,0.0,0.0,89,0.00,,,0.00,Wunderground v.1.15,2013-10-28 05:14:00,
2013-10-28 01:19:00,55.0,51.8,30.11,West,270,0.0,0.0,89,0.00,,,0.00,Wunderground v.1.15,2013-10-28 05:19:00,
2013-10-28 01:25:00,54.8,51.9,30.11,West,270,0.0,0.0,90,0.00,,,0.00,Wunderground v.1.15,2013-10-28 05:25:00,
2013-10-28 01:31:00,54.7,51.8,30.11,West,270,0.0,0.0,90,0.00,,,0.00,Wunderground v.1.15,2013-10-28 05:31:00,
2013-10-28 01:37:00,54.7,52.1,30.11,West,269,0.0,0.0,91,0.00,,,0.00,Wunderground v.1.15,2013-10-28 05:37:00,
2013-10-28 01:42:00,54.9,52.3,30.11,West,269,0.0,0.0,91,0.00,,,0.00,Wunderground v.1.15,2013-10-28 05:42:00,
2013-10-28 01:47:00,55.0,52.4,30.11,West,270,0.0,0.0,91,0.00,,,0.00,Wunderground v.1.15,2013-10-28 05:47:00,
2013-10-28 01:53:00,55.1,52.8,30.10,West,269,0.0,0.0,92,0.00,,,0.00,Wunderground v.1.15,2013-10-28 05:53:00,
2013-10-28 01:58:00,55.1,52.5,30.10,West,270,0.0,0.0,91,0.00,,,0.00,Wunderground v.1.15,2013-10-28 05:58:00,
2013-10-28 02:03:00,55.1,52.5,30.10,West,270,0.0,0.0,91,0.00,,,0.00,Wunderground v.1.15,2013-10-28 06:03:00,
2013-10-28 02:08:00,55.2,52.9,30.11,NW,326,0.0,0.0,92,0.00,,,0.00,Wunderground v.1.15,2013-10-28 06:08:00,
2013-10-28 02:14:00,55.3,53.0,30.11,NW,326,0.0,1.0,92,0.00,,,0.00,Wunderground v.1.15,2013-10-28 06:14:00,
2013-10-28 02:19:00,55.3,53.0,30.11,NNW,330,0.0,1.0,92,0.00,,,0.00,Wunderground v.1.15,2013-10-28 06:19:00,
2013-10-28 02:24:00,55.1,53.1,30.11,NNW,330,0.0,0.0,93,0.00,,,0.00,Wunderground v.1.15,2013-10-28 06:24:00,
2013-10-28 02:29:00,55.0,53.0,30.11,NNW,330,0.0,0.0,93,0.00,,,0.01,Wunderground v.1.15,2013-10-28 06:29:00,
2013-10-28 02:34:00,54.9,52.9,30.12,NNW,330,0.0,0.0,93,0.00,,,0.01,Wunderground v.1.15,2013-10-28 06:34:00,
2013-10-28 02:39:00,54.7,52.7,30.12,NNW,330,0.0,0.0,93,0.00,,,0.01,Wunderground v.1.15,2013-10-28 06:39:00,
2013-10-28 02:44:00,54.7,52.7,30.12,NNW,330,0.0,0.0,93,0.00,,,0.01,Wunderground v.1.15,2013-10-28 06:44:00,
2013-10-28 02:49:00,54.7,53.0,30.12,NNW,330,0.0,0.0,94,0.00,,,0.01,Wunderground v.1.15,2013-10-28 06:49:00,
2013-10-28 02:54:00,54.6,52.9,30.12,NNW,330,0.0,0.0,94,0.00,,,0.01,Wunderground v.1.15,2013-10-28 06:54:00,
2013-10-28 02:59:00,54.6,52.9,30.12,NNW,330,0.0,0.0,94,0.00,,,0.01,Wunderground v.1.15,2013-10-28 06:59:00,
2013-10-28 03:04:00,54.5,52.8,30.12,NNW,330,0.0,0.0,94,0.00,,,0.01,Wunderground v.1.15,2013-10-28 07:04:00,
2013-10-28 03:09:00,54.5,53.1,30.12,NNW,330,0.0,0.0,95,0.00,,,0.01,Wunderground v.1.15,2013-10-28 07:09:00,
2013-10-28 03:14:00,54.4,53.0,30.12,NNW,330,0.0,0.0,95,0.00,,,0.01,Wunderground v.1.15,2013-10-28 07:14:00,
2013-10-28 03:19:00,54.3,52.9,30.12,NNW,330,0.0,0.0,95,0.00,,,0.01,Wunderground v.1.15,2013-10-28 07:19:00,
2013-10-28 03:24:00,54.2,52.8,30.12,NNW,330,0.0,0.0,95,0.00,,,0.01,Wunderground v.1.15,2013-10-28 07:24:00,
2013-10-28 03:29:00,54.1,52.7,30.12,NNW,330,0.0,0.0,95,0.00,,,0.01,Wunderground v.1.15,2013-10-28 07:29:00,
2013-10-28 03:34:00,54.0,52.6,30.12,NNW,330,0.0,0.0,95,0.00,,,0.01,Wunderground v.1.15,2013-10-28 07:34:00,
2013-10-28 03:39:00,53.9,52.8,30.12,NNW,330,0.0,0.0,96,0.00,,,0.01,Wunderground v.1.15,2013-10-28 07:39:00,
2013-10-28 03:44:00,53.9,52.8,30.12,NNW,330,0.0,0.0,96,0.00,,,0.01,Wunderground v.1.15,2013-10-28 07:44:00,
2013-10-28 03:49:00,53.9,52.8,30.12,NNW,330,0.0,0.0,96,0.00,,,0.01,Wunderground v.1.15,2013-10-28 07:49:00,
2013-10-28 03:54:00,53.9,52.8,30.12,NNW,330,0.0,0.0,96,0.00,,,0.01,Wunderground v.1.15,2013-10-28 07:54:00,
2013-10-28 03:59:00,53.8,52.7,30.12,NNW,330,0.0,0.0,96,0.00,,,0.01,Wunderground v.1.15,2013-10-28 07:59:00,
2013-10-28 04:04:00,53.8,52.7,30.12,NNW,330,0.0,0.0,96,0.00,,,0.01,Wunderground v.1.15,2013-10-28 08:04:00,
2013-10-28 04:09:00,53.7,52.6,30.12,NNW,330,0.0,0.0,96,0.00,,,0.01,Wunderground v.1.15,2013-10-28 08:09:00,
2013-10-28 04:14:00,53.7,52.9,30.13,NNW,330,0.0,0.0,97,0.00,,,0.01,Wunderground v.1.15,2013-10-28 08:14:00,
2013-10-28 04:19:00,53.7,52.6,30.13,NNW,330,0.0,1.0,96,0.00,,,0.01,Wunderground v.1.15,2013-10-28 08:19:00,
2013-10-28 04:24:00,53.7,52.6,30.13,NNW,330,0.0,0.0,96,0.00,,,0.01,Wunderground v.1.15,2013-10-28 08:24:00,
2013-10-28 04:29:00,53.8,53.0,30.13,NNW,330,0.0,0.0,97,0.00,,,0.01,Wunderground v.1.15,2013-10-28 08:29:00,
2013-10-28 04:34:00,53.9,53.1,30.13,NNW,330,0.0,0.0,97,0.00,,,0.01,Wunderground v.1.15,2013-10-28 08:34:00,
2013-10-28 04:39:00,53.9,53.1,30.13,NNW,330,0.0,0.0,97,0.00,,,0.01,Wunderground v.1.15,2013-10-28 08:39:00,
2013-10-28 04:44:00,53.9,53.1,30.14,NNW,330,0.0,0.0,97,0.00,,,0.01,Wunderground v.1.15,2013-10-28 08:44:00,
2013-10-28 04:49:00,53.9,53.1,30.14,NNW,330,0.0,0.0,97,0.00,,,0.01,Wunderground v.1.15,2013-10-28 08:49:00,
2013-10-28 04:54:00,53.8,53.0,30.14,NNW,330,0.0,0.0,97,0.00,,,0.01,Wunderground v.1.15,2013-10-28 08:54:00,
2013-10-28 04:59:00,53.7,52.9,30.14,NNW,330,0.0,0.0,97,0.00,,,0.01,Wunderground v.1.15,2013-10-28 08:59:00,
2013-10-28 05:04:00,53.7,52.9,30.14,NNW,330,0.0,0.0,97,0.00,,,0.01,Wunderground v.1.15,2013-10-28 09:04:00,
2013-10-28 05:09:00,53.7,52.9,30.14,NNW,330,0.0,0.0,97,0.00,,,0.01,Wunderground v.1.15,2013-10-28 09:09:00,
2013-10-28 05:14:00,53.7,52.9,30.14,NNW,330,0.0,0.0,97,0.00,,,0.01,Wunderground v.1.15,2013-10-28 09:14:00,
2013-10-28 05:19:00,53.7,52.9,30.14,NNW,330,0.0,1.0,97,0.00,,,0.01,Wunderground v.1.15,2013-10-28 09:19:00,
2013-10-28 05:24:00,53.6,52.8,30.14,NNW,330,0.0,0.0,97,0.00,,,0.01,Wunderground v.1.15,2013-10-28 09:24:00,
2013-10-28 05:29:00,53.5,52.7,30.15,NNW,330,0.0,0.0,97,0.00,,,0.01,Wunderground v.1.15,2013-10-28 09:29:00,
2013-10-28 05:34:00,53.4,52.6,30.15,NNW,330,0.0,0.0,97,0.00,,,0.01,Wunderground v.1.15,2013-10-28 09:34:00,
2013-10-28 05:39:00,53.4,52.8,30.15,NNW,330,0.0,0.0,98,0.00,,,0.01,Wunderground v.1.15,2013-10-28 09:39:00,
2013-10-28 05:44:00,53.4,52.6,30.15,NNW,330,0.0,0.0,97,0.00,,,0.01,Wunderground v.1.15,2013-10-28 09:44:00,
2013-10-28 05:49:00,53.2,52.4,30.15,NNW,330,0.0,0.0,97,0.00,,,0.01,Wunderground v.1.15,2013-10-28 09:49:00,
2013-10-28 05:54:00,53.0,52.5,30.15,NNW,330,0.0,0.0,98,0.00,,,0.01,Wunderground v.1.15,2013-10-28 09:54:00,
2013-10-28 06:00:00,52.8,52.3,30.15,NNW,330,0.0,0.0,98,0.00,,,0.01,Wunderground v.1.15,2013-10-28 10:00:00,
2013-10-28 06:05:00,52.6,52.1,30.15,NNW,330,0.0,0.0,98,0.00,,,0.01,Wunderground v.1.15,2013-10-28 10:05:00,
2013-10-28 06:10:00,52.3,51.8,30.15,NNW,330,0.0,0.0,98,0.00,,,0.01,Wunderground v.1.15,2013-10-28 10:10:00,
2013-10-28 06:15:00,52.0,51.5,30.15,NNW,330,0.0,0.0,98,0.00,,,0.01,Wunderground v.1.15,2013-10-28 10:15:00,
2013-10-28 06:20:00,51.9,51.4,30.16,NNW,329,0.0,1.0,98,0.00,,,0.01,Wunderground v.1.15,2013-10-28 10:20:00,
2013-10-28 06:25:00,52.0,51.5,30.16,NNW,329,0.0,1.0,98,0.00,,,0.01,Wunderground v.1.15,2013-10-28 10:25:00,
2013-10-28 06:30:00,51.8,51.3,30.16,NNW,329,0.0,1.0,98,0.00,,,0.01,Wunderground v.1.15,2013-10-28 10:30:00,
2013-10-28 06:35:00,51.7,51.2,30.16,NNW,329,0.0,0.0,98,0.00,,,0.01,Wunderground v.1.15,2013-10-28 10:35:00,
2013-10-28 06:40:00,51.8,51.3,30.16,NNW,329,0.0,0.0,98,0.00,,,0.01,Wunderground v.1.15,2013-10-28 10:40:00,
2013-10-28 06:45:00,51.7,51.2,30.16,NNW,329,0.0,0.0,98,0.00,,,0.01,Wunderground v.1.15,2013-10-28 10:45:00,
2013-10-28 06:50:00,51.7,51.2,30.16,NNW,329,0.0,1.0,98,0.00,,,0.01,Wunderground v.1.15,2013-10-28 10:50:00,
2013-10-28 06:55:00,51.5,51.0,30.16,NNW,329,0.0,0.0,98,0.00,,,0.01,Wunderground v.1.15,2013-10-28 10:55:00,
2013-10-28 07:00:00,51.1,50.6,30.16,NNW,329,0.0,0.0,98,0.00,,,0.01,Wunderground v.1.15,2013-10-28 11:00:00,
2013-10-28 07:05:00,50.8,50.3,30.17,NNW,329,0.0,0.0,98,0.00,,,0.01,Wunderground v.1.15,2013-10-28 11:05:00,
2013-10-28 07:10:00,50.6,50.1,30.17,NNW,329,0.0,0.0,98,0.00,,,0.01,Wunderground v.1.15,2013-10-28 11:10:00,
2013-10-28 07:15:00,50.5,50.0,30.17,NNW,329,0.0,0.0,98,0.00,,,0.01,Wunderground v.1.15,2013-10-28 11:15:00,
2013-10-28 07:20:00,50.7,50.2,30.17,NNW,329,0.0,0.0,98,0.00,,,0.01,Wunderground v.1.15,2013-10-28 11:20:00,
2013-10-28 07:25:00,50.5,50.0,30.17,NNW,329,0.0,0.0,98,0.00,,,0.01,Wunderground v.1.15,2013-10-28 11:25:00,
2013-10-28 07:30:00,50.2,49.7,30.17,NNW,329,0.0,0.0,98,0.00,,,0.01,Wunderground v.1.15,2013-10-28 11:30:00,
2013-10-28 07:35:00,49.7,49.2,30.17,NNW,329,0.0,0.0,98,0.00,,,0.01,Wunderground v.1.15,2013-10-28 11:35:00,
2013-10-28 07:40:00,49.4,48.9,30.17,NNW,329,0.0,0.0,98,0.00,,,0.01,Wunderground v.1.15,2013-10-28 11:40:00,
2013-10-28 07:45:00,49.1,48.6,30.17,West,276,1.0,1.0,98,0.00,,,0.01,Wunderground v.1.15,2013-10-28 11:45:00,
2013-10-28 07:50:00,48.6,48.1,30.18,WSW,248,1.0,2.0,98,0.00,,,0.01,Wunderground v.1.15,2013-10-28 11:50:00,
2013-10-28 07:55:00,48.0,47.5,30.18,WSW,248,0.0,1.0,98,0.00,,,0.01,Wunderground v.1.15,2013-10-28 11:55:00,
2013-10-28 08:00:00,48.0,47.5,30.18,WSW,248,0.0,1.0,98,0.00,,,0.01,Wunderground v.1.15,2013-10-28 12:00:00,
2013-10-28 08:05:00,48.3,48.0,30.18,WSW,248,0.0,1.0,99,0.00,,,0.01,Wunderground v.1.15,2013-10-28 12:05:00,
2013-10-28 08:10:00,48.5,48.2,30.18,WSW,248,0.0,1.0,99,0.00,,,0.01,Wunderground v.1.15,2013-10-28 12:10:00,
2013-10-28 08:15:00,48.7,48.4,30.18,WSW,248,0.0,0.0,99,0.00,,,0.01,Wunderground v.1.15,2013-10-28 12:15:00,
2013-10-28 08:20:00,48.9,48.6,30.19,WSW,248,0.0,0.0,99,0.00,,,0.01,Wunderground v.1.15,2013-10-28 12:20:00,
2013-10-28 08:25:00,49.1,48.8,30.19,WSW,248,0.0,0.0,99,0.00,,,0.01,Wunderground v.1.15,2013-10-28 12:25:00,
2013-10-28 08:30:00,49.4,49.1,30.19,WSW,248,0.0,1.0,99,0.00,,,0.01,Wunderground v.1.15,2013-10-28 12:30:00,
2013-10-28 08:35:00,49.5,49.2,30.20,WSW,248,0.0,1.0,99,0.00,,,0.01,Wunderground v.1.15,2013-10-28 12:35:00,
2013-10-28 08:40:00,49.5,49.2,30.19,WSW,248,0.0,1.0,99,0.00,,,0.01,Wunderground v.1.15,2013-10-28 12:40:00,
2013-10-28 08:45:00,49.7,49.4,30.20,WSW,248,0.0,0.0,99,0.00,,,0.01,Wunderground v.1.15,2013-10-28 12:45:00,
2013-10-28 08:50:00,49.8,49.5,30.20,WSW,248,0.0,0.0,99,0.00,,,0.01,Wunderground v.1.15,2013-10-28 12:50:00,
2013-10-28 08:55:00,49.9,49.6,30.20,WSW,248,0.0,0.0,99,0.00,,,0.01,Wunderground v.1.15,2013-10-28 12:55:00,
2013-10-28 09:00:00,50.1,49.8,30.20,WSW,248,0.0,0.0,99,0.00,,,0.01,Wunderground v.1.15,2013-10-28 13:00:00,
2013-10-28 09:05:00,50.3,50.0,30.20,WSW,248,0.0,1.0,99,0.00,,,0.01,Wunderground v.1.15,2013-10-28 13:05:00,
2013-10-28 09:10:00,50.5,50.2,30.20,WSW,248,0.0,0.0,99,0.00,,,0.01,Wunderground v.1.15,2013-10-28 13:10:00,
2013-10-28 09:15:00,50.7,50.4,30.20,WSW,248,0.0,1.0,99,0.00,,,0.01,Wunderground v.1.15,2013-10-28 13:15:00,
2013-10-28 09:20:00,51.0,51.0,30.20,WSW,248,0.0,0.0,100,0.00,,,0.01,Wunderground v.1.15,2013-10-28 13:20:00,
2013-10-28 09:25:00,51.5,51.5,30.20,WSW,248,0.0,1.0,100,0.00,,,0.01,Wunderground v.1.15,2013-10-28 13:25:00,
2013-10-28 09:30:00,51.9,51.9,30.20,WSW,248,0.0,0.0,100,0.00,,,0.01,Wunderground v.1.15,2013-10-28 13:30:00,
2013-10-28 09:35:00,52.3,52.3,30.21,WSW,248,0.0,1.0,100,0.00,,,0.01,Wunderground v.1.15,2013-10-28 13:35:00,
2013-10-28 09:40:00,52.8,52.8,30.21,WSW,248,0.0,0.0,100,0.00,,,0.01,Wunderground v.1.15,2013-10-28 13:40:00,
2013-10-28 09:45:00,53.4,53.4,30.21,WSW,248,0.0,1.0,100,0.00,,,0.01,Wunderground v.1.15,2013-10-28 13:45:00,
2013-10-28 09:50:00,53.8,53.8,30.21,WSW,248,1.0,1.0,100,0.00,,,0.01,Wunderground v.1.15,2013-10-28 13:50:00,
2013-10-28 09:55:00,54.0,54.0,30.22,WSW,248,0.0,1.0,100,0.00,,,0.01,Wunderground v.1.15,2013-10-28 13:55:00,
2013-10-28 10:00:00,54.3,54.3,30.22,WSW,248,0.0,0.0,100,0.00,,,0.01,Wunderground v.1.15,2013-10-28 14:00:00,
2013-10-28 10:05:00,54.4,54.4,30.22,WSW,249,1.0,2.0,100,0.00,,,0.01,Wunderground v.1.15,2013-10-28 14:05:00,
2013-10-28 10:10:00,54.5,54.5,30.22,SW,236,0.0,1.0,100,0.00,,,0.01,Wunderground v.1.15,2013-10-28 14:10:00,
2013-10-28 10:15:00,54.7,54.7,30.22,WSW,250,1.0,2.0,100,0.00,,,0.01,Wunderground v.1.15,2013-10-28 14:15:00,
2013-10-28 10:20:00,54.9,54.9,30.22,WSW,245,1.0,2.0,100,0.00,,,0.01,Wunderground v.1.15,2013-10-28 14:20:00,
2013-10-28 10:25:00,55.1,55.1,30.22,WSW,252,2.0,3.0,100,0.00,,,0.01,Wunderground v.1.15,2013-10-28 14:25:00,
2013-10-28 10:30:00,55.3,55.3,30.23,WSW,241,1.0,2.0,100,0.00,,,0.01,Wunderground v.1.15,2013-10-28 14:30:00,
2013-10-28 10:35:00,55.6,55.6,30.23,SW,219,2.0,3.0,100,0.00,,,0.01,Wunderground v.1.15,2013-10-28 14:35:00,
2013-10-28 10:40:00,55.9,55.9,30.23,WSW,255,3.0,3.0,100,0.00,,,0.01,Wunderground v.1.15,2013-10-28 14:40:00,
2013-10-28 10:46:00,56.2,56.2,30.23,WSW,257,4.0,4.0,100,0.00,,,0.01,Wunderground v.1.15,2013-10-28 14:46:00,
2013-10-28 10:51:00,56.3,56.3,30.23,WSW,239,4.0,5.0,100,0.00,,,0.01,Wunderground v.1.15,2013-10-28 14:51:00,
2013-10-28 10:56:00,56.4,56.4,30.22,WSW,255,4.0,5.0,100,0.00,,,0.01,Wunderground v.1.15,2013-10-28 14:56:00,
2013-10-28 11:01:00,56.5,56.2,30.22,WSW,250,3.0,4.0,99,0.00,,,0.01,Wunderground v.1.15,2013-10-28 15:01:00,
2013-10-28 11:06:00,56.7,56.4,30.22,WSW,245,3.0,4.0,99,0.00,,,0.01,Wunderground v.1.15,2013-10-28 15:06:00,
2013-10-28 11:11:00,56.8,56.5,30.22,WSW,255,3.0,3.0,99,0.00,,,0.01,Wunderground v.1.15,2013-10-28 15:11:00,
2013-10-28 11:16:00,57.0,56.7,30.22,WSW,257,1.0,3.0,99,0.00,,,0.01,Wunderground v.1.15,2013-10-28 15:16:00,
2013-10-28 11:21:00,57.3,57.0,30.22,SW,214,1.0,2.0,99,0.00,,,0.01,Wunderground v.1.15,2013-10-28 15:21:00,
2013-10-28 11:26:00,57.7,57.4,30.22,WSW,242,2.0,5.0,99,0.00,,,0.01,Wunderground v.1.15,2013-10-28 15:26:00,
2013-10-28 11:31:00,57.8,57.5,30.22,West,263,3.0,4.0,99,0.00,,,0.01,Wunderground v.1.15,2013-10-28 15:31:00,
2013-10-28 11:36:00,58.1,57.8,30.22,SSW,211,3.0,5.0,99,0.00,,,0.01,Wunderground v.1.15,2013-10-28 15:36:00,
2013-10-28 11:41:00,58.3,58.0,30.22,WSW,250,4.0,6.0,99,0.00,,,0.01,Wunderground v.1.15,2013-10-28 15:41:00,
2013-10-28 11:46:00,58.4,57.8,30.22,WSW,257,3.0,6.0,98,0.00,,,0.01,Wunderground v.1.15,2013-10-28 15:46:00,
2013-10-28 11:51:00,58.5,57.9,30.23,WSW,257,8.0,9.0,98,0.00,,,0.02,Wunderground v.1.15,2013-10-28 15:51:00,
2013-10-28 11:56:00,58.8,57.7,30.22,WSW,248,6.0,9.0,96,0.00,,,0.02,Wunderground v.1.15,2013-10-28 15:56:00,
2013-10-28 12:01:00,59.3,57.0,30.22,West,269,5.0,7.0,92,0.00,,,0.02,Wunderground v.1.15,2013-10-28 16:01:00,
2013-10-28 12:06:00,59.8,56.9,30.23,WSW,253,5.0,7.0,90,0.00,,,0.02,Wunderground v.1.15,2013-10-28 16:06:00,
2013-10-28 12:11:00,60.2,56.9,30.23,SW,231,2.0,7.0,89,0.00,,,0.02,Wunderground v.1.15,2013-10-28 16:11:00,
2013-10-28 12:16:00,60.5,56.6,30.23,WSW,256,5.0,8.0,87,0.00,,,0.02,Wunderground v.1.15,2013-10-28 16:16:00,
2013-10-28 12:21:00,60.9,57.0,30.23,WSW,250,7.0,7.0,87,0.00,,,0.02,Wunderground v.1.15,2013-10-28 16:21:00,
2013-10-28 12:26:00,60.9,56.0,30.23,WSW,255,9.0,10.0,84,0.00,,,0.02,Wunderground v.1.15,2013-10-28 16:26:00,
2013-10-28 12:31:00,61.0,56.5,30.23,WSW,238,8.0,9.0,85,0.00,,,0.02,Wunderground v.1.15,2013-10-28 16:31:00,
2013-10-28 12:36:00,61.1,56.6,30.23,West,262,9.0,11.0,85,0.00,,,0.02,Wunderground v.1.15,2013-10-28 16:36:00,
2013-10-28 12:41:00,61.1,56.6,30.23,WSW,250,10.0,11.0,85,0.00,,,0.02,Wunderground v.1.15,2013-10-28 16:41:00,
2013-10-28 12:46:00,61.2,56.3,30.23,West,263,4.0,12.0,84,0.00,,,0.02,Wunderground v.1.15,2013-10-28 16:46:00,
2013-10-28 12:51:00,61.4,56.5,30.23,WSW,256,7.0,9.0,84,0.00,,,0.02,Wunderground v.1.15,2013-10-28 16:51:00,
2013-10-28 12:56:00,61.5,56.3,30.23,WSW,245,9.0,9.0,83,0.00,,,0.02,Wunderground v.1.15,2013-10-28 16:56:00,
2013-10-28 13:02:00,61.6,56.0,30.23,WSW,250,12.0,12.0,82,0.00,,,0.02,Wunderground v.1.15,2013-10-28 17:02:00,
2013-10-28 13:07:00,61.7,56.1,30.22,WSW,245,7.0,12.0,82,0.00,,,0.02,Wunderground v.1.15,2013-10-28 17:07:00,
2013-10-28 13:12:00,61.8,56.6,30.22,SW,226,4.0,7.0,83,0.00,,,0.02,Wunderground v.1.15,2013-10-28 17:12:00,
2013-10-28 13:17:00,61.8,56.2,30.22,WSW,248,8.0,12.0,82,0.00,,,0.02,Wunderground v.1.15,2013-10-28 17:17:00,
2013-10-28 13:22:00,61.8,56.2,30.22,WSW,250,6.0,9.0,82,0.00,,,0.02,Wunderground v.1.15,2013-10-28 17:22:00,
2013-10-28 13:27:00,61.8,55.9,30.21,WSW,256,7.0,11.0,81,0.00,,,0.02,Wunderground v.1.15,2013-10-28 17:27:00,
2013-10-28 13:32:00,61.7,56.1,30.21,SW,224,5.0,11.0,82,0.00,,,0.02,Wunderground v.1.15,2013-10-28 17:32:00,
2013-10-28 13:37:00,61.6,55.7,30.21,WSW,253,7.0,13.0,81,0.00,,,0.02,Wunderground v.1.15,2013-10-28 17:37:00,
2013-10-28 13:42:00,61.4,55.9,30.21,West,260,10.0,12.0,82,0.00,,,0.02,Wunderground v.1.15,2013-10-28 17:42:00,
2013-10-28 13:47:00,61.0,55.8,30.21,WSW,248,7.0,14.0,83,0.00,,,0.02,Wunderground v.1.15,2013-10-28 17:47:00,
2013-10-28 13:52:00,60.6,55.7,30.21,WSW,250,6.0,11.0,84,0.00,,,0.02,Wunderground v.1.15,2013-10-28 17:52:00,
2013-10-28 13:57:00,60.6,56.1,30.21,WSW,252,8.0,11.0,85,0.00,,,0.02,Wunderground v.1.15,2013-10-28 17:57:00,
2013-10-28 14:02:00,60.6,56.1,30.20,WSW,250,6.0,8.0,85,0.00,,,0.02,Wunderground v.1.15,2013-10-28 18:02:00,
2013-10-28 14:07:00,60.7,56.5,30.20,WSW,250,6.0,8.0,86,0.00,,,0.02,Wunderground v.1.15,2013-10-28 18:07:00,
2013-10-28 14:12:00,60.9,56.4,30.20,SW,233,5.0,8.0,85,0.00,,,0.02,Wunderground v.1.15,2013-10-28 18:12:00,
2013-10-28 14:17:00,61.0,56.8,30.20,SW,225,4.0,9.0,86,0.00,,,0.02,Wunderground v.1.15,2013-10-28 18:17:00,
2013-10-28 14:22:00,61.2,56.7,30.19,West,269,4.0,6.0,85,0.00,,,0.02,Wunderground v.1.15,2013-10-28 18:22:00,
2013-10-28 14:27:00,61.3,56.8,30.19,SW,236,3.0,7.0,85,0.00,,,0.02,Wunderground v.1.15,2013-10-28 18:27:00,
2013-10-28 14:32:00,61.3,56.8,30.19,WSW,246,3.0,5.0,85,0.00,,,0.02,Wunderground v.1.15,2013-10-28 18:32:00,
2013-10-28 14:37:00,61.4,56.5,30.19,WSW,252,3.0,7.0,84,0.00,,,0.02,Wunderground v.1.15,2013-10-28 18:37:00,
2013-10-28 14:42:00,61.6,56.7,30.19,West,264,3.0,7.0,84,0.00,,,0.02,Wunderground v.1.15,2013-10-28 18:42:00,
2013-10-28 14:47:00,61.8,56.6,30.19,West,266,4.0,9.0,83,0.00,,,0.02,Wunderground v.1.15,2013-10-28 18:47:00,
2013-10-28 14:52:00,61.8,56.6,30.19,WSW,255,7.0,11.0,83,0.00,,,0.02,Wunderground v.1.15,2013-10-28 18:52:00,
2013-10-28 14:57:00,61.6,56.4,30.19,WSW,255,6.0,11.0,83,0.00,,,0.02,Wunderground v.1.15,2013-10-28 18:57:00,
2013-10-28 15:02:00,61.6,56.4,30.18,WSW,255,5.0,10.0,83,0.00,,,0.02,Wunderground v.1.15,2013-10-28 19:02:00,
2013-10-28 15:07:00,61.7,56.1,30.18,West,270,7.0,10.0,82,0.00,,,0.02,Wunderground v.1.15,2013-10-28 19:07:00,
2013-10-28 15:12:00,61.8,56.2,30.18,West,262,6.0,10.0,82,0.00,,,0.02,Wunderground v.1.15,2013-10-28 19:12:00,
2013-10-28 15:17:00,61.8,56.2,30.18,WSW,248,7.0,10.0,82,0.00,,,0.02,Wunderground v.1.15,2013-10-28 19:17:00,
2013-10-28 15:22:00,61.8,56.2,30.18,West,259,7.0,11.0,82,0.00,,,0.02,Wunderground v.1.15,2013-10-28 19:22:00,
2013-10-28 15:27:00,61.8,56.2,30.18,WSW,253,7.0,11.0,82,0.00,,,0.02,Wunderground v.1.15,2013-10-28 19:27:00,
2013-10-28 15:32:00,61.7,55.8,30.18,West,264,7.0,11.0,81,0.00,,,0.02,Wunderground v.1.15,2013-10-28 19:32:00,
2013-10-28 15:37:00,61.7,56.1,30.18,West,266,4.0,11.0,82,0.00,,,0.02,Wunderground v.1.15,2013-10-28 19:37:00,
2013-10-28 15:42:00,61.8,56.2,30.18,WSW,256,5.0,7.0,82,0.00,,,0.02,Wunderground v.1.15,2013-10-28 19:42:00,
2013-10-28 15:47:00,61.8,56.2,30.18,WSW,256,6.0,8.0,82,0.00,,,0.02,Wunderground v.1.15,2013-10-28 19:47:00,
2013-10-28 15:52:00,61.8,56.2,30.18,WSW,256,5.0,6.0,82,0.00,,,0.02,Wunderground v.1.15,2013-10-28 19:52:00,
2013-10-28 15:57:00,61.8,56.2,30.18,West,261,7.0,10.0,82,0.00,,,0.02,Wunderground v.1.15,2013-10-28 19:57:00,
2013-10-28 16:02:00,61.7,56.1,30.18,WSW,242,8.0,9.0,82,0.00,,,0.02,Wunderground v.1.15,2013-10-28 20:02:00,
2013-10-28 16:07:00,61.6,56.0,30.18,WSW,253,8.0,11.0,82,0.00,,,0.02,Wunderground v.1.15,2013-10-28 20:07:00,
2013-10-28 16:12:00,61.4,56.5,30.19,West,267,7.0,12.0,84,0.00,,,0.02,Wunderground v.1.15,2013-10-28 20:12:00,
2013-10-28 16:17:00,61.1,56.2,30.19,WSW,256,5.0,12.0,84,0.00,,,0.02,Wunderground v.1.15,2013-10-28 20:17:00,
2013-10-28 16:22:00,60.9,56.4,30.19,WSW,257,4.0,7.0,85,0.00,,,0.02,Wunderground v.1.15,2013-10-28 20:22:00,
2013-10-28 16:28:00,60.9,56.7,30.19,WSW,253,5.0,7.0,86,0.00,,,0.02,Wunderground v.1.15,2013-10-28 20:28:00,
2013-10-28 16:33:00,61.0,56.1,30.19,West,269,4.0,6.0,84,0.00,,,0.02,Wunderground v.1.15,2013-10-28 20:33:00,
2013-10-28 16:38:00,61.1,56.6,30.19,WSW,255,3.0,6.0,85,0.00,,,0.02,Wunderground v.1.15,2013-10-28 20:38:00,
2013-10-28 16:43:00,61.3,56.4,30.19,WSW,257,2.0,4.0,84,0.00,,,0.02,Wunderground v.1.15,2013-10-28 20:43:00,
2013-10-28 16:48:00,61.5,56.9,30.19,SW,225,3.0,4.0,85,0.00,,,0.02,Wunderground v.1.15,2013-10-28 20:48:00,
2013-10-28 16:53:00,61.7,56.5,30.19,WSW,250,4.0,6.0,83,0.00,,,0.02,Wunderground v.1.15,2013-10-28 20:53:00,
2013-10-28 16:58:00,61.9,56.7,30.19,SW,233,4.0,6.0,83,0.00,,,0.02,Wunderground v.1.15,2013-10-28 20:58:00,
2013-10-28 17:03:00,62.1,56.5,30.19,WSW,252,4.0,4.0,82,0.00,,,0.02,Wunderground v.1.15,2013-10-28 21:03:00,
2013-10-28 17:08:00,62.0,56.4,30.19,WSW,250,3.0,6.0,82,0.00,,,0.02,Wunderground v.1.15,2013-10-28 21:08:00,
2013-10-28 17:13:00,62.1,56.5,30.19,WSW,250,4.0,6.0,82,0.00,,,0.02,Wunderground v.1.15,2013-10-28 21:13:00,
2013-10-28 17:18:00,62.1,56.5,30.19,WSW,258,3.0,7.0,82,0.00,,,0.02,Wunderground v.1.15,2013-10-28 21:18:00,
2013-10-28 17:23:00,62.1,56.5,30.20,WSW,257,4.0,7.0,82,0.00,,,0.02,Wunderground v.1.15,2013-10-28 21:23:00,
2013-10-28 17:28:00,61.9,56.3,30.20,West,265,2.0,7.0,82,0.00,,,0.02,Wunderground v.1.15,2013-10-28 21:28:00,
2013-10-28 17:33:00,61.9,56.3,30.20,West,270,4.0,4.0,82,0.00,,,0.02,Wunderground v.1.15,2013-10-28 21:33:00,
2013-10-28 17:38:00,61.8,56.2,30.20,West,260,2.0,4.0,82,0.00,,,0.02,Wunderground v.1.15,2013-10-28 21:38:00,
2013-10-28 17:43:00,61.9,56.7,30.20,West,262,2.0,3.0,83,0.00,,,0.02,Wunderground v.1.15,2013-10-28 21:43:00,
2013-10-28 17:48:00,62.2,57.0,30.20,West,262,3.0,6.0,83,0.00,,,0.02,Wunderground v.1.15,2013-10-28 21:48:00,
2013-10-28 17:53:00,62.4,56.8,30.20,West,263,6.0,6.0,82,0.00,,,0.02,Wunderground v.1.15,2013-10-28 21:53:00,
2013-10-28 17:58:00,62.3,57.1,30.20,WSW,250,3.0,6.0,83,0.00,,,0.02,Wunderground v.1.15,2013-10-28 21:58:00,
2013-10-28 18:03:00,62.1,56.9,30.20,West,267,3.0,5.0,83,0.00,,,0.02,Wunderground v.1.15,2013-10-28 22:03:00,
2013-10-28 18:08:00,62.0,56.8,30.20,West,264,3.0,5.0,83,0.00,,,0.02,Wunderground v.1.15,2013-10-28 22:08:00,
2013-10-28 18:13:00,61.7,56.8,30.20,West,259,3.0,5.0,84,0.00,,,0.02,Wunderground v.1.15,2013-10-28 22:13:00,
2013-10-28 18:18:00,61.5,56.6,30.20,WSW,255,2.0,5.0,84,0.00,,,0.02,Wunderground v.1.15,2013-10-28 22:18:00,
2013-10-28 18:23:00,61.3,56.8,30.20,West,263,0.0,2.0,85,0.00,,,0.02,Wunderground v.1.15,2013-10-28 22:23:00,
2013-10-28 18:28:00,61.0,56.5,30.20,West,263,0.0,2.0,85,0.00,,,0.02,Wunderground v.1.15,2013-10-28 22:28:00,
2013-10-28 18:33:00,60.6,56.1,30.21,West,263,0.0,0.0,85,0.00,,,0.02,Wunderground v.1.15,2013-10-28 22:33:00,
2013-10-28 18:38:00,60.1,55.9,30.21,West,263,0.0,0.0,86,0.00,,,0.02,Wunderground v.1.15,2013-10-28 22:38:00,
2013-10-28 18:43:00,59.7,55.8,30.21,West,262,0.0,0.0,87,0.00,,,0.02,Wunderground v.1.15,2013-10-28 22:43:00,
2013-10-28 18:48:00,59.3,55.7,30.21,West,263,0.0,0.0,88,0.00,,,0.02,Wunderground v.1.15,2013-10-28 22:48:00,
2013-10-28 18:53:00,58.9,55.7,30.22,West,263,0.0,0.0,89,0.00,,,0.02,Wunderground v.1.15,2013-10-28 22:53:00,
2013-10-28 18:58:00,58.6,55.7,30.22,West,263,0.0,0.0,90,0.00,,,0.02,Wunderground v.1.15,2013-10-28 22:58:00,
2013-10-28 19:03:00,58.3,55.4,30.22,West,263,0.0,0.0,90,0.00,,,0.02,Wunderground v.1.15,2013-10-28 23:03:00,
2013-10-28 19:08:00,57.9,55.0,30.22,West,262,0.0,0.0,90,0.00,,,0.02,Wunderground v.1.15,2013-10-28 23:08:00,
2013-10-28 19:13:00,57.4,54.5,30.22,West,263,0.0,0.0,90,0.00,,,0.02,Wunderground v.1.15,2013-10-28 23:13:00,
2013-10-28 19:18:00,57.2,54.6,30.22,West,263,0.0,0.0,91,0.00,,,0.02,Wunderground v.1.15,2013-10-28 23:18:00,
2013-10-28 19:23:00,57.3,55.0,30.22,West,262,0.0,0.0,92,0.00,,,0.02,Wunderground v.1.15,2013-10-28 23:23:00,
2013-10-28 19:28:00,57.2,55.2,30.22,West,263,0.0,0.0,93,0.00,,,0.02,Wunderground v.1.15,2013-10-28 23:28:00,
2013-10-28 19:33:00,57.1,55.1,30.22,West,263,0.0,0.0,93,0.00,,,0.02,Wunderground v.1.15,2013-10-28 23:33:00,
2013-10-28 19:38:00,57.1,55.1,30.23,West,263,0.0,0.0,93,0.00,,,0.02,Wunderground v.1.15,2013-10-28 23:38:00,
2013-10-28 19:43:00,57.0,55.0,30.23,West,262,0.0,1.0,93,0.00,,,0.02,Wunderground v.1.15,2013-10-28 23:43:00,
2013-10-28 19:48:00,56.9,55.2,30.23,West,263,0.0,1.0,94,0.00,,,0.02,Wunderground v.1.15,2013-10-28 23:48:00,
2013-10-28 19:53:00,56.9,55.2,30.23,West,263,0.0,0.0,94,0.00,,,0.02,Wunderground v.1.15,2013-10-28 23:53:00,
2013-10-28 19:58:00,56.9,55.2,30.23,West,263,0.0,1.0,94,0.00,,,0.02,Wunderground v.1.15,2013-10-28 23:58:00,
2013-10-28 20:03:00,56.9,55.2,30.23,West,263,0.0,0.0,94,0.00,,,0.02,Wunderground v.1.15,2013-10-29 00:03:00,
2013-10-28 20:08:00,56.9,55.5,30.23,West,263,1.0,1.0,95,0.00,,,0.02,Wunderground v.1.15,2013-10-29 00:08:00,
2013-10-28 20:13:00,56.8,55.1,30.23,West,263,0.0,1.0,94,0.00,,,0.02,Wunderground v.1.15,2013-10-29 00:13:00,
2013-10-28 20:18:00,56.8,55.4,30.23,North,1,2.0,2.0,95,0.00,,,0.02,Wunderground v.1.15,2013-10-29 00:18:00,
2013-10-28 20:23:00,56.8,55.4,30.23,North,5,0.0,1.0,95,0.00,,,0.02,Wunderground v.1.15,2013-10-29 00:23:00,
2013-10-28 20:28:00,56.9,55.5,30.23,North,5,0.0,1.0,95,0.00,,,0.02,Wunderground v.1.15,2013-10-29 00:28:00,
2013-10-28 20:33:00,56.9,55.5,30.24,North,5,0.0,0.0,95,0.00,,,0.02,Wunderground v.1.15,2013-10-29 00:33:00,
2013-10-28 20:38:00,57.0,55.6,30.24,North,5,0.0,0.0,95,0.00,,,0.02,Wunderground v.1.15,2013-10-29 00:38:00,
2013-10-28 20:43:00,57.0,55.6,30.24,North,5,0.0,0.0,95,0.00,,,0.02,Wunderground v.1.15,2013-10-29 00:43:00,
2013-10-28 20:48:00,56.9,55.5,30.24,North,5,0.0,0.0,95,0.00,,,0.02,Wunderground v.1.15,2013-10-29 00:48:00,
2013-10-28 20:53:00,56.9,55.5,30.24,North,5,0.0,0.0,95,0.00,,,0.02,Wunderground v.1.15,2013-10-29 00:53:00,
2013-10-28 20:58:00,56.8,55.4,30.24,North,5,0.0,1.0,95,0.00,,,0.02,Wunderground v.1.15,2013-10-29 00:58:00,
2013-10-28 21:03:00,56.7,55.3,30.24,WSW,255,0.0,0.0,95,0.00,,,0.02,Wunderground v.1.15,2013-10-29 01:03:00,
2013-10-28 21:08:00,56.6,55.2,30.24,WSW,255,1.0,1.0,95,0.00,,,0.02,Wunderground v.1.15,2013-10-29 01:08:00,
2013-10-28 21:13:00,56.4,55.0,30.24,WSW,254,0.0,1.0,95,0.00,,,0.02,Wunderground v.1.15,2013-10-29 01:13:00,
2013-10-28 21:18:00,56.5,55.4,30.24,WSW,252,0.0,1.0,96,0.00,,,0.02,Wunderground v.1.15,2013-10-29 01:18:00,
2013-10-28 21:23:00,56.4,55.0,30.24,WSW,252,0.0,0.0,95,0.00,,,0.02,Wunderground v.1.15,2013-10-29 01:23:00,
2013-10-28 21:28:00,56.4,55.3,30.24,WSW,252,0.0,1.0,96,0.00,,,0.02,Wunderground v.1.15,2013-10-29 01:28:00,
2013-10-28 21:33:00,56.5,55.4,30.25,WSW,252,0.0,1.0,96,0.00,,,0.02,Wunderground v.1.15,2013-10-29 01:33:00,
2013-10-28 21:38:00,56.5,55.4,30.25,WSW,252,0.0,1.0,96,0.00,,,0.02,Wunderground v.1.15,2013-10-29 01:38:00,
2013-10-28 21:43:00,56.4,55.3,30.25,WSW,252,0.0,0.0,96,0.00,,,0.02,Wunderground v.1.15,2013-10-29 01:43:00,
2013-10-28 21:48:00,56.5,55.4,30.25,WSW,252,0.0,1.0,96,0.00,,,0.02,Wunderground v.1.15,2013-10-29 01:48:00,
2013-10-28 21:53:00,56.5,55.4,30.25,WSW,252,0.0,0.0,96,0.00,,,0.02,Wunderground v.1.15,2013-10-29 01:53:00,
2013-10-28 21:58:00,56.4,55.3,30.25,WSW,252,0.0,0.0,96,0.00,,,0.02,Wunderground v.1.15,2013-10-29 01:58:00,
2013-10-28 22:03:00,56.3,55.2,30.25,WSW,252,0.0,0.0,96,0.00,,,0.02,Wunderground v.1.15,2013-10-29 02:03:00,
2013-10-28 22:08:00,56.2,55.1,30.25,WSW,252,0.0,0.0,96,0.00,,,0.02,Wunderground v.1.15,2013-10-29 02:08:00,
2013-10-28 22:13:00,56.0,54.9,30.24,WSW,252,0.0,0.0,96,0.00,,,0.02,Wunderground v.1.15,2013-10-29 02:13:00,
2013-10-28 22:18:00,55.9,54.8,30.25,WSW,252,0.0,0.0,96,0.00,,,0.02,Wunderground v.1.15,2013-10-29 02:18:00,
2013-10-28 22:23:00,55.8,54.7,30.24,WSW,252,0.0,0.0,96,0.00,,,0.02,Wunderground v.1.15,2013-10-29 02:23:00,
2013-10-28 22:28:00,55.6,54.5,30.25,WSW,252,0.0,0.0,96,0.00,,,0.02,Wunderground v.1.15,2013-10-29 02:28:00,
2013-10-28 22:33:00,55.4,54.3,30.25,WSW,252,0.0,0.0,96,0.00,,,0.02,Wunderground v.1.15,2013-10-29 02:33:00,
2013-10-28 22:38:00,55.3,54.5,30.25,WSW,252,0.0,0.0,97,0.00,,,0.02,Wunderground v.1.15,2013-10-29 02:38:00,
2013-10-28 22:43:00,55.2,54.4,30.25,WSW,252,0.0,0.0,97,0.00,,,0.02,Wunderground v.1.15,2013-10-29 02:43:00,
2013-10-28 22:48:00,55.0,54.2,30.26,WSW,252,0.0,1.0,97,0.00,,,0.02,Wunderground v.1.15,2013-10-29 02:48:00,
2013-10-28 22:53:00,54.8,54.0,30.25,WSW,252,0.0,0.0,97,0.00,,,0.02,Wunderground v.1.15,2013-10-29 02:53:00,
2013-10-28 22:58:00,54.7,53.9,30.26,WSW,252,1.0,1.0,97,0.00,,,0.02,Wunderground v.1.15,2013-10-29 02:58:00,
2013-10-28 23:04:00,54.5,53.7,30.25,WSW,252,0.0,0.0,97,0.00,,,0.02,Wunderground v.1.15,2013-10-29 03:04:00,
2013-10-28 23:09:00,54.3,53.5,30.26,WSW,252,0.0,0.0,97,0.00,,,0.02,Wunderground v.1.15,2013-10-29 03:09:00,
2013-10-28 23:13:00,54.1,53.3,30.25,WSW,252,0.0,0.0,97,0.00,,,0.02,Wunderground v.1.15,2013-10-29 03:13:00,
2013-10-28 23:19:00,54.0,53.4,30.25,WSW,252,0.0,0.0,98,0.00,,,0.02,Wunderground v.1.15,2013-10-29 03:19:00,
2013-10-28 23:24:00,53.8,53.2,30.25,WSW,252,0.0,0.0,98,0.00,,,0.02,Wunderground v.1.15,2013-10-29 03:24:00,
2013-10-28 23:29:00,53.7,53.1,30.26,WSW,252,0.0,1.0,98,0.00,,,0.02,Wunderground v.1.15,2013-10-29 03:29:00,
2013-10-28 23:34:00,53.5,52.9,30.26,WSW,252,0.0,0.0,98,0.00,,,0.02,Wunderground v.1.15,2013-10-29 03:34:00,
2013-10-28 23:39:00,53.1,52.6,30.26,WSW,252,0.0,0.0,98,0.00,,,0.02,Wunderground v.1.15,2013-10-29 03:39:00,
2013-10-28 23:44:00,52.6,51.8,30.26,WSW,251,0.0,0.0,97,0.00,,,0.02,Wunderground v.1.15,2013-10-29 03:44:00,
2013-10-28 23:49:00,52.4,51.9,30.26,WSW,252,0.0,1.0,98,0.00,,,0.02,Wunderground v.1.15,2013-10-29 03:49:00,
2013-10-28 23:54:00,52.2,51.7,30.26,WSW,252,0.0,0.0,98,0.00,,,0.02,Wunderground v.1.15,2013-10-29 03:54:00,
2013-10-28 23:59:00,52.1,51.6,30.26,WSW,252,0.0,0.0,98,0.00,,,0.02,Wunderground v.1.15,2013-10-29 03:59:00,